EW9487 Weather Reports


time (UTC)temp
F
wind
direction
speed
knots
gust
knots
rain 1hr
in
rain 24hr
in
rain mn
in
humidity
%
barometer
mb
20260502183002 59 288 0.0 0.0 0.00 0.00 0.00 46 1011.4
20260502181602 60 352 0.0 2.6 0.00 0.00 0.00 48 1011.8
20260502163025 57 342 0.0 0.0 0.00 0.00 0.00 58 1013.3
20260502161520 57 343 0.0 2.6 0.00 0.00 0.00 58 1013.1
20260502151614 57 309 0.9 3.5 0.00 0.00 0.00 65 1013.5
20260502123050 53 347 0.0 0.9 0.00 0.00 0.00 64 1012.6
20260502121546 52 58 0.0 0.0 0.00 0.00 0.00 53 1012.6
20260502114538 50 164 0.0 0.0 0.00 0.00 0.00 37 1012.3
20260502113032 0 0.0 0.0 0.00 0.00 0.00 1012.3
20260502111525 0 0.0 0.0 0.00 0.00 0.00 1012.4
20260502110021 0 0.0 0.0 0.00 0.00 0.00 1012.4
20260502104525 0 0.0 0.0 0.00 0.00 0.00 1012.5
20260502101521 0 0.0 0.0 0.00 0.00 0.00 1012.0
20260502091534 -90 152 0.0 0.0 0.00 0.00 0.00 43 1011.8
20260502071510 49 165 0.0 0.0 0.00 0.00 0.00 53 1011.2
20260502070009 49 165 0.0 0.0 0.00 0.00 0.00 53 1010.9
20260502064508 49 165 0.0 0.0 0.00 0.00 0.00 55 1010.9
20260502063037 49 165 0.0 0.0 0.00 0.00 0.00 56 1010.9
20260502061535 49 165 0.0 0.0 0.00 0.00 0.00 58 1011.1
20260502060039 49 165 0.0 0.0 0.00 0.00 0.00 59 1011.3
20260502054540 49 165 0.0 0.0 0.00 0.00 0.00 61 1011.4
20260502053028 50 165 0.0 0.0 0.00 0.00 0.00 64 1011.7
20260502051526 50 165 0.0 0.0 0.00 0.00 0.00 65 1011.7
20260502050023 50 165 0.0 0.0 0.00 0.00 0.00 68 1011.9
20260502044521 51 165 0.0 0.0 0.00 0.00 0.00 68 1011.8
20260502043020 51 165 0.0 0.0 0.00 0.00 0.00 69 1012.0
20260502041529 51 165 0.0 0.0 0.00 0.00 0.00 70 1012.0
20260502040014 52 165 0.0 0.0 0.00 0.00 0.00 71 1012.1
20260502034507 52 165 0.0 0.0 0.00 0.00 0.00 72 1012.2
20260502033006 52 166 0.0 0.0 0.00 0.00 0.00 72 1012.3
20260502031505 52 167 0.0 0.0 0.00 0.00 0.00 72 1012.1
20260502030048 53 165 0.0 0.0 0.00 0.00 0.00 73 1012.0
20260502024530 53 164 0.0 0.0 0.00 0.00 0.00 73 1011.8
20260502023032 54 164 0.0 0.0 0.00 0.00 0.00 73 1011.9
20260502021522 54 164 0.0 0.0 0.00 0.00 0.00 72 1011.8
20260502020020 55 167 0.0 0.0 0.00 0.00 0.00 72 1011.8
20260502014521 55 164 0.0 0.0 0.00 0.00 0.00 72 1011.9
20260502013013 55 172 0.0 0.0 0.00 0.00 0.00 71 1011.6
20260502011512 56 158 0.0 0.0 0.00 0.00 0.00 70 1011.6
20260502010009 56 154 0.0 0.0 0.00 0.00 0.00 70 1011.2
20260502004508 56 162 0.0 0.0 0.00 0.00 0.00 69 1011.0
20260502003002 57 162 0.0 0.0 0.00 0.00 0.00 68 1010.6
20260502001605 58 162 0.0 0.0 0.00 0.00 0.00 66 1010.5
20260502000106 59 162 0.0 0.0 0.00 0.00 0.00 64 1010.5
20260501234551 61 162 0.0 0.0 0.00 0.00 0.00 59 1010.4
20260501233102 62 162 0.0 0.0 0.00 0.00 0.00 58 1010.4
20260501231548 63 162 0.0 0.0 0.00 0.00 0.00 55 1010.5
20260501230108 64 168 0.0 0.0 0.00 0.00 0.00 53 1010.6
20260501224547 64 165 0.0 0.0 0.00 0.00 0.00 49 1010.8
20260501223029 65 213 0.0 0.0 0.00 0.00 0.00 45 1010.7
20260501221610 66 161 0.0 0.0 0.00 0.00 0.00 43 1010.7
20260501220103 67 158 0.0 3.5 0.00 0.00 0.00 42 1010.7
20260501214547 68 220 0.0 1.7 0.00 0.00 0.00 41 1010.8
20260501213047 69 224 0.9 4.3 0.00 0.00 0.00 40 1010.6
20260501211544 70 140 0.0 4.3 0.00 0.00 0.00 39 1010.6
20260501210043 71 162 0.9 4.3 0.00 0.00 0.00 37 1010.6
20260501204512 71 173 0.0 2.6 0.00 0.00 0.00 36 1010.7
20260501203020 70 155 0.0 3.5 0.00 0.00 0.00 36 1010.9
20260501201505 70 68 0.0 2.6 0.00 0.00 0.00 34 1011.2
20260501200002 71 153 0.9 3.5 0.00 0.00 0.00 35 1011.5
20260501194601 71 231 0.0 1.7 0.00 0.00 0.00 36 1011.8
20260501193058 71 141 0.9 4.3 0.00 0.00 0.00 34 1011.9
20260501191555 71 162 0.0 2.6 0.00 0.00 0.00 37 1011.9
20260501190052 71 213 0.0 2.6 0.00 0.00 0.00 35 1012.2
20260501184549 71 245 0.0 0.0 0.00 0.00 0.00 35 1012.5